Zurück zum Katalog

STARLINK-2319

AktivKommunikationVLEO
NORAD 47790·PAYLOAD·🇺🇸 United States

Gestartet Mar 11, 2021 von Cape Canaveral Space Force Station

Loading…

Nächste Überflüge (nächste 24 Stunden)

TLE

AktuellSource: CelesTrak SupGP

Epoche: Sep 14, 2026, 22:11 UTC

1 47790C 21018D   26257.92479167  .00045513  00000+0  14637-2 0  2573
2 47790  53.1591  56.0316 0001311  80.1768  92.5631 15.31676747    14

Verfolge STARLINK-2319 in Echtzeit mit AllMySat

Download on the App Store